Wetbulb
63.56 62.41 62.52 59.56 50.26 50.49 47.30 49.03 53.12 52.12 53.84 57.17 59.84 61.91 60.97 61.79 61.84 59.52 68.57 70.04 68.57 68.46 71.51 72.75 73.00 73.71 73.66 73.65 73.43 73.27 73.56 73.79 73.81 74.01 73.75 73.86 74.39 74.07 73.96 73.72 73.88 74.10 74.05 73.40 73.15 72.96 72.84 72.66 73.06
61.42 60.92 58.98 54.04 47.58 44.40 46.39 51.18 50.26 53.75 57.26 58.53 57.81 58.59 61.59 63.39 67.50 68.06 68.15 69.22 68.48 69.53 70.94 72.32 72.70 73.31 73.42 73.29 73.20 73.33 73.92 73.99 73.75 73.81 73.79 74.01 74.29 74.02 73.73 73.52 73.30 73.40 73.51 73.03 72.78 72.93 72.96 72.73 72.48
61.35 60.79 53.91 50.72 47.60 45.55 46.63 51.37 52.78 55.24 57.57 57.62 56.56 58.60 62.70 65.18 68.45 69.16 70.49 69.75 68.41 69.03 70.44 72.37 72.22 72.69 73.03 73.08 73.04 73.17 73.40 73.31 73.46 73.43 73.85 74.07 74.00 73.88 73.58 73.08 72.99 73.22 73.36 73.03 72.60 72.66 72.58 72.01 71.46
58.91 57.69 54.00 47.10 46.40 49.00 49.71 52.44 55.23 55.08 56.31 58.45 59.54 58.19 67.55 70.51 69.68 71.81 70.72 69.76 67.52 68.37 70.24 70.88 71.37 72.07 72.86 73.11 73.12 73.15 72.73 72.45 72.58 72.95 73.44 73.80 73.78 73.65 73.30 72.65 73.02 73.30 73.26 73.08 72.54 72.25 71.91 70.94 70.52
58.43 54.50 48.27 46.31 46.23 50.00 53.08 53.87 56.17 54.38 55.17 56.56 59.55 57.52 65.17 70.03 72.59 71.68 70.32 69.68 67.32 67.61 71.52 71.30 70.77 71.76 72.75 73.28 73.09 72.67 72.14 71.98 72.22 72.73 73.24 73.41 73.60 73.46 72.68 72.29 72.83 72.88 73.02 72.80 72.31 71.77 70.99 70.53 70.30
52.60 52.70 45.40 44.40 47.11 50.20 52.21 54.10 56.16 55.09 55.42 56.04 56.31 57.87 66.94 71.09 70.99 69.91 70.77 69.73 68.87 69.36 70.60 70.88 71.60 71.51 72.00 72.32 72.23 71.36 71.29 71.60 71.98 72.43 72.79 73.14 72.90 72.47 72.15 71.94 72.31 72.43 72.43 72.01 71.66 70.82 70.52 70.22 69.94
50.94 49.39 46.39 45.98 46.78 48.98 51.73 55.30 53.48 54.50 54.67 54.99 57.95 57.26 67.76 69.42 71.18 70.59 71.20 70.80 69.48 70.84 69.11 69.80 71.40 71.96 71.17 70.79 70.66 70.47 70.75 71.09 71.43 71.59 71.93 72.15 71.70 71.12 71.44 71.72 71.88 71.95 71.44 71.25 70.54 70.06 69.62 69.67 69.08
52.94 50.48 46.08 47.76 46.81 47.22 52.76 54.33 55.02 53.87 54.61 60.62 60.26 57.66 64.09 69.41 70.94 70.82 71.16 70.62 70.61 70.44 68.90 69.06 70.07 71.48 72.06 71.45 69.76 69.71 70.11 70.33 70.71 70.96 70.92 70.50 70.57 70.63 70.77 70.89 71.20 71.27 71.07 70.50 70.01 69.18 68.90 68.82 68.21
53.91 47.40 44.86 45.93 47.42 49.54 53.20 52.23 54.76 55.92 54.59 57.29 60.01 65.07 70.19 70.86 70.30 69.86 69.98 70.21 71.00 70.25 68.98 69.28 68.75 69.50 70.82 71.40 70.55 69.96 70.19 70.08 70.08 70.54 70.20 68.80 70.07 70.01 69.99 69.53 70.02 70.33 69.95 69.54 69.07 68.44 68.08 67.74 67.26
49.41 46.10 46.22 49.94 50.62 50.26 52.50 52.70 53.10 53.01 52.86 54.55 57.73 65.15 70.38 70.57 69.32 67.99 68.08 67.89 69.12 69.60 69.01 69.47 69.02 68.24 68.54 68.78 69.63 69.78 70.00 70.07 69.90 69.98 70.07 69.68 68.66 68.56 68.69 68.52 69.05 69.13 68.70 68.28 68.14 67.71 67.13 66.05 64.09
47.51 45.90 49.55 50.01 51.50 52.44 51.76 51.81 53.71 51.80 50.59 54.09 56.06 61.38 68.11 69.35 69.14 68.13 67.91 68.59 69.07 70.72 69.78 69.65 69.70 69.50 68.54 67.57 68.38 68.28 68.44 68.68 69.04 68.80 69.14 68.22 68.02 67.43 66.99 68.23 68.03 67.48 67.33 66.31 66.12 65.43 64.39 63.47 62.70
44.60 48.18 49.82 50.53 51.69 50.94 49.96 52.45 51.80 52.41 53.08 55.86 57.05 60.42 64.72 68.37 68.45 68.57 67.86 68.45 69.43 70.05 70.03 69.99 70.42 69.99 69.82 69.99 67.91 67.73 67.59 68.01 67.89 68.37 69.24 67.25 67.74 67.27 66.73 67.76 67.20 65.87 65.12 64.29 63.82 63.67 63.11 63.28 63.73
46.95 47.69 49.01 50.51 51.24 51.13 51.73 50.56 51.29 52.03 54.36 55.71 55.98 59.27 58.72 60.02 68.76 69.53 69.63 69.41 69.63 69.95 70.51 70.34 71.00 70.39 70.56 72.00 69.58 68.51 68.46 67.99 68.34 68.66 69.71 67.85 67.70 67.87 67.71 67.67 66.99 65.71 65.43 64.57 64.22 63.87 63.87 63.86 64.78
49.07 48.19 48.40 50.14 50.40 51.20 49.60 49.73 51.29 52.55 54.41 54.09 54.72 55.07 57.43 57.76 59.21 68.10 69.49 69.14 69.15 70.17 70.90 71.29 70.90 71.56 71.14 71.29 70.72 69.39 70.04 69.44 69.77 69.36 69.47 69.10 68.74 69.73 68.63 67.96 66.85 65.98 66.39 65.02 65.81 64.64 64.93 65.10 65.48
49.29 45.40 46.60 47.87 49.72 49.42 51.21 47.24 47.85 52.09 53.20 52.56 53.06 54.20 55.19 56.58 58.45 59.66 68.41 69.04 69.67 70.26 71.19 71.41 71.47 72.28 71.61 71.58 72.26 71.02 70.65 70.83 70.43 70.85 70.99 70.17 70.70 70.78 68.87 68.10 68.30 67.76 67.77 66.56 67.16 67.24 67.31 66.12 66.63
48.18 45.89 41.36 45.99 48.12 49.29 49.64 44.13 49.43 52.30 51.33 50.97 52.66 53.52 54.04 55.19 56.37 59.14 61.57 69.70 69.96 70.63 70.42 71.59 72.21 72.60 72.20 71.43 72.55 71.87 71.82 70.66 70.87 71.41 71.89 71.28 70.76 71.72 69.64 68.94 68.46 69.06 69.17 68.61 67.68 67.25 66.34 66.31 66.36
46.73 40.79 40.73 42.60 47.44 47.78 47.32 45.07 49.34 51.57 51.23 50.32 51.74 52.73 53.57 54.19 55.50 58.29 61.65 65.57 70.09 69.74 70.22 70.97 71.32 71.91 72.31 72.51 72.36 72.30 71.26 71.72 71.45 71.54 71.99 72.76 71.64 71.59 71.16 69.22 69.11 69.80 69.19 68.47 67.94 67.20 67.03 66.46 66.92
40.94 41.39 42.50 41.60 45.05 46.81 45.41 45.24 48.27 50.43 50.26 50.35 50.85 52.22 52.71 53.55 54.23 57.67 60.53 63.83 69.87 70.95 70.28 70.82 70.91 71.83 72.62 72.71 72.27 72.26 71.75 71.97 71.16 71.77 71.34 72.46 72.37 71.86 70.87 69.97 70.10 69.99 68.56 67.93 67.76 67.22 67.35 66.85 66.60
44.99 44.39 42.72 44.75 47.01 45.36 45.31 45.74 47.16 48.92 49.08 49.61 50.07 51.21 52.01 53.23 54.76 56.55 60.35 61.36 66.90 70.97 70.46 70.27 70.08 70.80 71.67 71.13 70.60 70.44 69.72 70.69 71.02 71.07 71.64 71.86 72.16 72.11 71.35 70.82 69.98 70.49 68.03 67.72 68.19 67.53 67.11 66.62 67.42
45.03 42.93 43.74 47.06 48.18 46.52 45.57 44.96 47.17 48.50 48.82 49.98 50.08 50.42 50.89 52.05 54.43 55.40 57.07 61.52 65.84 70.32 71.03 70.08 70.41 70.38 71.18 71.17 71.31 71.13 70.54 70.43 70.75 71.26 71.20 71.70 72.21 71.87 71.54 70.74 70.18 69.71 68.38 68.12 68.14 67.59 65.81 65.95 66.86
43.52 42.62 43.49 43.91 48.35 49.45 46.45 44.44 46.15 48.29 49.14 50.27 50.59 51.53 52.16 52.23 53.44 56.01 57.13 60.87 64.77 70.41 70.39 68.86 70.38 70.43 70.89 71.14 71.39 70.88 70.66 70.49 69.99 70.31 70.37 71.26 71.67 71.66 71.18 71.32 70.54 69.82 69.21 67.87 67.91 67.89 66.52 64.79 65.90
39.28 45.74 45.40 44.24 43.12 39.74 45.48 37.21 45.02 47.16 48.35 49.91 49.78 50.70 51.41 52.72 54.53 54.79 56.45 58.20 63.24 66.24 68.94 71.02 69.61 70.79 70.62 70.79 70.02 69.36 68.65 67.78 69.21 69.70 70.55 70.72 71.20 70.96 71.13 70.92 71.10 70.07 69.37 68.25 68.22 68.40 67.35 66.32 64.74
41.08 45.14 44.02 44.91 42.15 42.11 42.41 39.31 43.33 47.01 46.35 49.20 50.34 51.90 53.24 53.10 53.78 54.56 55.59 58.07 61.81 63.12 63.85 67.20 68.58 69.56 71.30 70.42 70.42 69.57 69.25 69.54 70.37 70.85 70.58 70.64 70.92 70.79 70.84 70.86 70.85 69.97 69.85 68.86 68.59 67.69 67.82 67.49 65.93
45.25 43.61 43.23 42.62 39.38 33.35 39.53 39.39 40.65 44.85 47.62 49.75 51.29 52.02 52.83 53.83 54.19 55.20 56.25 57.85 58.94 61.72 63.25 63.83 64.11 64.19 65.33 67.81 71.86 71.16 70.90 70.45 69.98 70.47 70.50 70.67 70.95 70.77 70.85 71.03 70.75 70.64 69.77 69.15 68.66 68.42 67.68 67.17 66.77
41.89 39.78 31.80 29.40 30.54 30.60 40.88 38.62 41.71 47.75 49.98 50.60 50.92 52.75 53.31 54.51 54.22 54.54 55.70 56.51 57.77 58.47 59.50 63.47 63.57 62.69 63.58 63.47 64.38 71.73 71.06 70.67 69.77 69.33 69.58 70.33 70.54 70.61 70.30 70.44 70.22 70.22 69.76 69.72 69.20 68.78 67.75 67.66 66.93
38.82 38.44 31.76 25.31 28.08 32.21 41.18 35.21 40.42 48.58 49.63 50.82 51.04 52.13 53.26 53.37 55.52 54.63 55.36 56.64 57.06 58.74 59.37 62.12 60.99 62.01 63.50 64.52 63.73 63.95 69.93 70.83 70.33 69.68 69.23 68.58 70.44 70.87 71.17 70.73 70.45 70.39 70.12 69.56 69.42 68.56 68.42 67.97 67.36
38.44 35.12 41.53 35.46 36.36 30.78 36.06 40.83 45.49 47.52 48.02 48.92 49.85 51.08 51.87 52.82 54.40 54.46 55.55 55.61 56.59 57.96 58.44 60.16 59.70 60.04 61.42 62.55 62.36 63.79 63.79 66.89 69.22 69.47 70.36 69.35 70.36 70.02 69.92 70.39 70.10 69.93 69.73 69.42 69.08 68.72 67.80 67.71 67.49
40.28 42.54 33.84 35.17 27.65 24.94 31.95 35.47 37.80 44.08 45.72 47.54 48.95 49.52 50.50 52.09 53.14 54.30 54.13 54.48 54.51 55.73 58.06 59.84 61.01 60.63 60.57 60.68 62.09 65.68 65.10 64.48 67.65 69.12 68.49 68.54 68.65 70.08 69.83 69.85 69.70 69.46 69.16 69.11 68.89 68.19 68.21 67.66 67.49
36.56 35.61 35.04 36.70 34.74 28.17 26.99 34.10 44.33 43.83 46.49 45.24 46.60 48.50 49.79 50.59 51.52 52.41 52.67 53.70 54.28 54.80 55.22 58.99 60.23 61.27 62.49 63.73 62.63 62.26 63.69 68.65 69.07 68.32 68.34 68.82 68.34 68.47 68.82 69.16 68.72 69.01 68.57 68.75 68.26 68.13 67.79 67.45 64.72
36.27 32.70 32.83 26.80 26.91 29.78 31.59 33.88 46.00 45.59 46.45 46.78 45.92 46.75 47.81 49.03 49.79 50.88 52.17 52.95 53.19 53.33 53.58 54.42 57.65 59.04 60.05 61.44 63.33 65.11 65.34 64.67 65.32 68.12 68.60 69.14 68.28 68.80 68.69 67.97 67.43 67.03 67.65 67.90 67.61 63.74 63.79 61.73 58.95
MSLP
1009.35 1008.38 1008.11 1007.36 1006.13 1003.65 1000.84 999.28 997.50 995.70 995.31 995.56 996.31 996.62 997.10 998.34 999.71 1000.97 1001.88 1002.41 1004.32 1006.10 1007.53 1008.41 1009.06 1009.73 1010.35 1010.98 1011.48 1012.07 1012.66 1013.06 1013.43 1013.88 1014.19 1014.60 1014.99 1015.20 1015.47 1015.72 1016.01 1016.25 1016.51 1016.80 1017.04 1017.23 1017.37 1017.55 1017.70
1009.06 1007.94 1006.58 1005.95 1004.51 1002.13 999.67 998.21 996.80 995.51 995.64 996.60 997.28 997.55 997.21 998.84 1000.06 1001.12 1001.69 1003.00 1004.76 1006.16 1007.41 1008.36 1009.06 1009.75 1010.45 1011.02 1011.66 1012.10 1012.68 1013.23 1013.62 1014.00 1014.43 1014.76 1015.11 1015.47 1015.80 1016.05 1016.30 1016.56 1016.87 1017.10 1017.29 1017.50 1017.78 1017.96 1018.09
1009.08 1007.93 1006.59 1004.86 1003.11 1001.13 999.10 996.60 995.85 995.31 995.84 996.90 997.52 998.00 997.55 998.89 999.95 1000.84 1001.75 1003.14 1005.01 1006.33 1007.22 1008.35 1009.14 1009.76 1010.53 1011.14 1011.75 1012.31 1012.73 1013.31 1013.81 1014.15 1014.52 1014.96 1015.28 1015.60 1015.99 1016.34 1016.61 1016.82 1017.02 1017.28 1017.56 1017.82 1018.15 1018.35 1018.42
1007.72 1006.61 1006.00 1003.74 1001.67 1000.15 998.88 996.89 995.90 996.06 996.54 997.16 997.52 997.72 998.53 998.95 999.71 1000.59 1002.01 1003.57 1005.04 1006.29 1007.14 1008.82 1009.35 1009.93 1010.58 1011.26 1011.82 1012.38 1012.86 1013.40 1013.93 1014.30 1014.69 1015.01 1015.38 1015.73 1016.08 1016.43 1016.75 1017.04 1017.26 1017.47 1017.80 1018.08 1018.40 1018.62 1018.74
1006.80 1006.17 1004.62 1002.79 1001.16 999.96 998.05 996.66 996.20 996.56 996.81 997.27 997.84 997.63 998.56 999.55 1000.12 1001.41 1002.38 1003.72 1004.97 1006.19 1007.43 1008.84 1009.43 1010.10 1010.71 1011.34 1011.88 1012.39 1012.90 1013.47 1014.03 1014.40 1014.79 1015.16 1015.47 1015.81 1016.21 1016.55 1016.83 1017.17 1017.47 1017.74 1018.03 1018.32 1018.54 1018.77 1018.96
1006.29 1005.54 1004.27 1002.02 1000.72 999.35 997.90 996.65 996.47 997.14 997.35 997.94 998.37 998.21 999.53 1000.13 1000.56 1001.90 1002.86 1004.06 1005.11 1006.07 1007.62 1008.90 1009.65 1010.16 1010.81 1011.41 1011.94 1012.48 1012.91 1013.48 1014.05 1014.53 1014.92 1015.27 1015.58 1015.92 1016.31 1016.66 1016.93 1017.24 1017.59 1017.95 1018.23 1018.43 1018.62 1018.81 1019.05
1006.16 1005.18 1003.47 1002.26 1000.36 998.53 997.29 996.26 996.34 997.15 997.86 997.97 998.21 998.66 999.90 1000.41 1001.22 1001.79 1003.11 1004.29 1005.25 1006.46 1007.68 1008.88 1009.69 1010.36 1010.93 1011.49 1012.03 1012.54 1013.02 1013.53 1014.06 1014.57 1015.05 1015.38 1015.73 1016.04 1016.36 1016.73 1017.07 1017.38 1017.75 1018.10 1018.36 1018.57 1018.77 1018.94 1019.07
1006.09 1005.42 1003.66 1001.75 1000.30 998.48 996.98 996.18 996.51 997.47 998.03 998.32 998.52 998.87 999.53 1000.35 1001.51 1002.19 1003.28 1004.44 1005.48 1006.74 1007.83 1008.87 1009.54 1010.33 1011.07 1011.73 1012.23 1012.63 1013.13 1013.63 1014.13 1014.65 1015.10 1015.53 1015.89 1016.21 1016.53 1016.83 1017.15 1017.46 1017.81 1018.17 1018.44 1018.63 1018.82 1019.01 1019.20
1006.59 1005.32 1002.85 1001.54 1000.42 998.85 997.26 996.85 997.07 997.81 998.17 998.30 998.54 999.50 1000.57 1001.07 1001.73 1002.55 1003.61 1004.75 1005.85 1006.96 1007.89 1008.80 1009.44 1009.99 1010.66 1011.43 1012.28 1012.84 1013.33 1013.81 1014.28 1014.77 1015.22 1015.63 1015.90 1016.30 1016.65 1016.83 1017.17 1017.56 1017.90 1018.23 1018.49 1018.68 1018.88 1019.08 1019.21
1006.05 1004.73 1002.22 1002.03 1000.63 999.42 998.07 997.31 997.36 998.00 998.18 998.39 999.05 1000.09 1000.77 1001.26 1001.86 1002.57 1003.39 1004.43 1005.59 1006.75 1007.76 1008.56 1009.19 1009.75 1010.30 1010.83 1011.98 1012.64 1013.25 1013.81 1014.23 1014.63 1015.17 1015.37 1015.55 1016.03 1016.33 1016.65 1017.12 1017.56 1017.95 1018.26 1018.52 1018.74 1018.89 1018.99 1018.88
1005.57 1003.51 1003.06 1002.09 1001.01 999.97 998.78 998.08 997.50 998.11 998.28 998.75 998.81 999.88 1000.77 1001.38 1001.83 1002.49 1003.18 1004.04 1005.01 1006.23 1007.40 1008.26 1008.92 1009.42 1009.99 1010.34 1011.50 1012.12 1012.75 1013.29 1013.90 1014.29 1014.77 1015.03 1015.16 1015.63 1015.96 1016.55 1017.09 1017.52 1017.85 1018.09 1018.39 1018.67 1018.77 1018.65 1018.49
1005.31 1003.70 1002.89 1002.09 1001.24 1000.42 999.62 999.11 998.46 998.35 998.38 998.41 998.51 999.04 1000.18 1001.07 1001.61 1002.08 1002.70 1003.39 1004.37 1005.54 1006.70 1007.78 1008.55 1009.15 1009.63 1009.80 1010.89 1011.44 1011.98 1012.62 1013.25 1013.72 1014.29 1014.68 1014.83 1015.16 1015.47 1015.95 1016.45 1017.00 1017.37 1017.56 1017.86 1018.18 1018.38 1018.29 1018.07
1004.14 1002.96 1003.08 1002.55 1001.75 1000.96 1000.59 999.78 999.58 999.49 999.19 998.90 998.82 999.26 999.89 1000.46 1000.98 1001.65 1002.22 1002.70 1003.67 1004.84 1005.89 1006.98 1007.89 1008.62 1009.16 1009.39 1010.25 1010.76 1011.26 1011.73 1012.28 1012.95 1013.53 1014.04 1014.28 1014.70 1014.81 1015.13 1015.67 1016.28 1016.63 1016.98 1017.27 1017.46 1017.75 1017.83 1017.67
1003.39 1002.87 1002.31 1001.95 1001.72 1001.24 1000.81 1000.47 1000.68 999.99 999.94 999.59 999.09 999.18 999.53 1000.12 1000.44 1000.58 1001.26 1001.84 1002.59 1003.77 1005.00 1006.13 1007.19 1007.99 1008.65 1008.99 1009.45 1010.02 1010.40 1011.00 1011.55 1012.12 1012.61 1013.31 1013.61 1013.86 1014.22 1014.71 1014.98 1015.54 1015.79 1016.20 1016.37 1016.75 1017.05 1017.15 1017.14
1003.37 1002.53 1001.72 1001.14 1000.97 1000.94 1001.17 1000.72 1000.11 1000.32 1000.67 1000.04 999.68 999.32 999.36 999.52 999.93 1000.02 1000.16 1000.75 1001.41 1002.40 1003.82 1005.29 1006.33 1007.34 1007.98 1008.41 1008.83 1009.39 1009.66 1010.12 1010.87 1011.25 1011.87 1012.54 1012.97 1013.27 1013.67 1014.29 1014.42 1014.59 1014.90 1015.37 1015.66 1016.00 1016.26 1016.79 1016.90
1003.11 1002.34 1000.98 1000.00 1000.32 1000.44 1001.03 999.11 999.23 1000.27 1000.67 1000.14 999.62 999.32 999.32 999.23 999.40 999.40 999.61 999.87 1000.31 1001.36 1002.61 1004.25 1005.37 1006.40 1007.28 1007.96 1008.32 1008.76 1009.14 1009.51 1010.07 1010.46 1011.08 1011.76 1012.43 1012.81 1013.31 1013.78 1014.00 1013.97 1014.29 1014.70 1015.26 1015.70 1016.07 1016.46 1016.71
1002.41 1001.00 1000.16 999.73 999.60 999.79 999.94 998.16 998.28 999.65 999.40 999.50 999.16 998.89 998.76 998.63 998.52 998.51 998.61 999.02 999.70 1000.25 1001.45 1003.10 1004.45 1005.60 1006.44 1007.30 1007.89 1008.27 1008.77 1009.07 1009.35 1009.75 1010.23 1010.94 1011.70 1012.22 1012.70 1013.23 1013.48 1013.62 1013.91 1014.36 1014.85 1015.29 1015.66 1016.14 1016.30
1001.12 1000.26 999.15 998.03 998.39 998.72 998.75 998.02 998.46 998.92 998.72 998.71 998.39 997.99 998.14 998.05 997.75 997.57 998.03 998.39 998.95 999.68 1000.54 1002.05 1003.42 1004.77 1006.05 1006.69 1007.48 1007.92 1008.29 1008.58 1008.81 1009.20 1009.54 1010.20 1010.92 1011.53 1012.28 1012.60 1012.95 1013.14 1013.73 1014.07 1014.50 1014.93 1015.31 1015.62 1015.84
1001.63 999.99 998.98 998.08 998.04 998.14 997.68 997.19 997.49 998.20 998.35 997.98 997.28 997.38 997.49 997.17 997.09 997.23 997.42 997.89 998.46 999.07 999.96 1001.29 1002.71 1003.83 1005.37 1006.17 1006.61 1007.13 1007.40 1007.85 1008.27 1008.68 1008.78 1009.36 1010.06 1010.77 1011.40 1012.08 1012.51 1012.67 1013.03 1013.53 1014.05 1014.56 1014.99 1015.23 1015.49
1001.26 1000.02 998.50 997.90 997.70 997.29 996.84 996.00 996.14 996.68 997.12 997.13 996.91 996.96 997.39 997.02 996.55 996.63 996.95 997.32 997.87 998.57 999.38 1000.67 1001.88 1003.00 1004.16 1005.40 1005.80 1006.24 1006.84 1007.24 1007.68 1008.08 1008.24 1008.47 1009.17 1009.93 1010.62 1011.29 1011.66 1012.12 1012.55 1012.96 1013.31 1013.77 1014.41 1014.81 1014.97
1000.81 999.90 999.10 998.30 997.60 996.97 996.65 995.67 995.10 995.22 995.91 996.28 996.25 996.32 996.74 996.78 996.50 996.22 996.37 996.71 997.42 998.21 999.40 1000.33 1001.24 1001.95 1002.99 1004.25 1005.34 1005.87 1006.44 1006.89 1007.21 1007.27 1007.60 1007.89 1008.39 1009.08 1009.67 1010.42 1010.95 1011.25 1011.70 1012.05 1012.47 1012.90 1013.54 1014.13 1014.49
1000.35 1000.13 999.61 998.96 998.35 997.30 997.86 996.41 995.10 994.78 995.31 995.77 995.90 996.03 996.16 996.44 996.43 996.53 996.54 996.78 997.39 998.06 998.89 1000.13 1000.71 1001.48 1002.17 1003.12 1004.16 1004.77 1005.10 1005.45 1005.61 1006.16 1006.69 1007.23 1007.78 1008.41 1008.97 1009.71 1010.22 1010.50 1010.80 1011.18 1011.57 1012.17 1012.63 1013.31 1013.85
1000.59 1000.86 1000.10 999.60 999.20 998.70 998.36 997.70 995.75 995.32 995.24 995.38 995.27 995.49 995.70 996.21 996.70 996.83 996.97 996.81 997.33 998.12 998.76 999.58 1000.36 1001.32 1001.90 1002.25 1002.90 1003.77 1004.30 1004.67 1004.80 1005.20 1005.88 1006.56 1007.09 1007.62 1008.22 1008.88 1009.39 1009.78 1009.91 1010.25 1010.64 1011.21 1011.67 1012.09 1012.82
1000.82 1001.10 1000.72 1000.94 1001.65 999.68 999.45 999.21 996.88 995.38 994.39 994.45 994.38 994.62 994.86 995.62 996.37 996.82 996.86 997.03 997.37 997.97 998.88 999.25 999.71 1000.69 1001.58 1002.10 1002.42 1002.61 1003.18 1003.84 1004.11 1004.36 1004.90 1005.47 1005.92 1006.62 1007.20 1007.71 1008.23 1008.74 1009.23 1009.32 1009.68 1010.14 1010.68 1011.12 1011.77
1001.77 1001.02 1001.58 1002.20 1002.50 1000.69 999.46 998.89 997.28 995.49 994.72 994.25 994.27 994.52 994.74 994.54 995.65 996.28 996.86 997.29 997.81 998.37 999.05 999.64 999.96 1000.07 1000.33 1000.80 1001.47 1002.10 1002.53 1003.08 1003.44 1003.72 1004.00 1004.42 1004.86 1005.44 1005.94 1006.47 1007.10 1007.59 1008.03 1008.55 1009.05 1009.43 1009.84 1010.29 1010.86
1001.07 1002.05 1002.26 1002.24 1002.30 1000.97 999.59 997.71 995.65 996.17 995.34 995.11 994.92 994.98 995.63 996.17 996.53 997.01 997.67 998.30 998.85 999.52 999.72 999.95 1000.16 1000.02 1000.17 1000.73 1001.08 1001.46 1001.94 1002.36 1002.73 1003.13 1003.43 1003.68 1003.81 1004.08 1004.73 1005.55 1006.18 1006.77 1007.36 1007.87 1008.27 1008.65 1008.95 1009.42 1010.12
1001.94 1001.40 1002.62 1003.40 1003.25 1002.83 999.82 997.75 996.63 995.59 995.31 995.09 995.24 995.76 996.73 997.40 997.76 998.51 999.23 1000.04 1000.25 1000.51 1000.83 1000.96 1001.11 1000.93 1000.87 1000.85 1000.99 1000.98 1001.26 1001.67 1002.05 1002.47 1002.74 1003.05 1003.19 1003.59 1004.16 1004.76 1005.34 1005.88 1006.49 1007.03 1007.51 1007.88 1008.35 1008.83 1009.29
1003.50 1003.84 1003.85 1004.59 1004.54 1003.63 1001.56 999.29 997.59 996.31 996.22 995.47 995.91 996.99 998.11 998.70 999.31 999.93 1000.42 1000.97 1001.38 1001.70 1001.71 1001.67 1001.73 1001.57 1001.26 1001.06 1001.08 1000.92 1000.71 1001.11 1001.39 1001.78 1002.22 1002.48 1002.78 1003.07 1003.48 1004.08 1004.57 1005.22 1005.76 1006.34 1006.76 1007.12 1007.67 1008.21 1008.64
1005.03 1005.50 1006.60 1005.97 1006.14 1004.75 1002.97 999.98 999.43 998.96 998.58 998.20 998.44 999.34 999.97 1000.30 1000.48 1000.84 1001.38 1001.65 1002.00 1002.39 1002.53 1002.65 1002.77 1002.50 1002.06 1001.61 1001.25 1001.19 1001.11 1000.96 1001.01 1001.38 1001.78 1002.00 1002.22 1002.50 1002.87 1003.34 1003.92 1004.53 1005.14 1005.68 1006.07 1006.41 1006.90 1007.59 1008.43
1007.73 1008.22 1008.65 1008.74 1008.45 1006.90 1005.12 1002.19 1000.42 1000.99 1000.90 1000.33 1000.84 1001.13 1001.45 1001.62 1001.56 1001.57 1001.80 1002.10 1002.57 1003.02 1003.38 1003.53 1003.38 1003.12 1002.82 1002.45 1002.01 1001.54 1001.22 1001.31 1001.17 1001.26 1001.29 1001.55 1001.89 1002.05 1002.40 1002.91 1003.46 1004.00 1004.48 1005.03 1005.38 1005.96 1006.59 1007.19 1008.24
Wind_Speed
14 15 11 10 7 9 17 18 21 24 2 4 9 10 13 12 15 13 18 16 26 22 18 19 19 18 19 18 19 18 16 15 15 14 14 14 13 13 13 12 11 11 12 12 12 12 12 12 10
11 19 8 8 10 13 15 20 25 22 15 10 6 9 11 22 14 17 12 25 22 21 17 17 19 19 18 18 18 19 18 16 15 15 14 14 14 13 12 11 10 11 10 12 12 12 11 10 8
13 15 9 8 13 16 16 24 22 6 12 4 1 5 4 15 18 14 14 25 22 19 17 17 19 19 19 19 18 18 18 16 15 15 15 14 14 14 12 11 10 11 11 12 12 12 10 8 8
8 9 8 12 20 21 26 23 5 9 9 2 7 7 9 15 14 13 21 24 21 19 17 19 19 19 19 19 19 18 17 16 14 14 14 14 14 13 12 11 10 10 10 11 12 11 9 8 8
12 8 13 17 22 24 22 24 6 1 5 2 5 12 14 13 21 20 21 20 20 19 17 18 18 18 19 18 19 18 17 16 14 14 13 13 13 13 12 11 10 9 9 10 10 9 9 8 7
11 11 15 17 23 23 23 25 10 3 6 7 6 14 10 13 20 18 18 18 18 18 17 16 18 18 18 18 17 17 17 16 15 13 13 13 12 12 11 10 10 9 9 10 9 9 9 8 6
15 14 19 23 23 22 24 21 7 7 9 13 8 6 10 15 16 19 17 16 16 18 17 14 14 15 16 15 15 15 16 16 14 13 12 12 12 11 11 10 9 9 9 9 9 8 8 7 6
13 14 25 23 20 26 23 16 13 10 14 8 3 1 11 18 17 17 17 15 14 16 15 14 14 14 12 11 13 15 15 14 14 13 12 11 11 10 10 10 9 10 9 9 8 8 8 7 5
17 15 18 27 26 20 23 6 8 5 15 5 5 11 12 16 17 17 16 13 14 13 15 13 13 13 13 13 11 12 13 13 12 12 11 10 6 8 9 9 12 9 9 8 8 8 7 6 5
18 15 28 22 22 22 25 18 10 12 14 10 6 10 9 13 16 17 18 17 16 16 16 13 13 14 12 11 12 10 11 8 8 9 9 7 6 7 10 9 11 11 9 8 8 7 7 6 5
17 25 20 22 25 25 25 22 7 14 16 15 13 12 11 14 16 16 17 17 16 16 13 15 13 13 13 11 9 7 6 7 7 10 10 7 6 6 5 5 5 5 7 5 6 5 4 7 6
22 27 24 24 24 22 22 17 19 11 14 12 16 18 15 16 15 16 17 18 19 18 18 17 15 13 13 9 10 9 9 8 8 9 11 7 4 7 6 6 7 6 6 6 6 4 6 7 7
25 28 23 24 24 22 21 20 16 19 20 15 14 9 10 9 16 16 17 17 18 19 18 19 17 15 13 9 11 10 10 10 11 10 11 8 7 7 6 7 8 7 7 6 7 6 7 6 7
27 24 24 22 23 24 22 20 14 20 19 20 16 15 10 11 13 15 19 19 20 20 19 19 19 17 16 11 13 11 9 11 10 11 11 13 7 6 6 5 8 8 7 8 6 7 7 6 4
27 28 25 24 23 25 21 22 27 19 20 21 21 19 16 15 17 15 16 19 20 21 21 20 20 18 17 15 10 11 10 10 10 10 13 15 10 7 8 7 5 7 7 10 6 6 5 5 5
27 27 25 25 26 26 22 27 28 20 21 24 22 18 19 19 18 18 15 16 18 21 23 22 18 20 18 16 9 10 8 9 10 9 10 16 14 8 8 7 5 5 5 5 5 4 4 4 5
22 21 30 29 26 20 23 34 26 16 19 25 23 21 18 17 22 19 16 15 18 18 23 24 21 20 20 16 12 9 11 9 7 10 8 13 15 13 7 7 6 6 5 5 5 4 5 5 5
25 31 26 29 28 25 26 26 24 18 14 19 24 21 21 20 21 17 14 13 16 17 20 24 19 18 17 12 11 9 9 8 10 7 10 13 12 15 12 9 6 8 5 5 5 5 5 4 5
27 27 31 23 22 28 25 27 24 19 21 21 20 16 11 17 21 16 13 15 11 16 14 23 21 18 14 12 13 11 12 10 9 10 11 12 14 15 14 9 10 7 9 7 7 6 6 6 4
29 30 30 24 24 23 26 31 26 23 24 20 18 15 14 16 15 18 18 15 12 13 15 21 21 20 16 12 11 10 10 10 10 9 10 12 14 15 14 14 11 12 9 10 8 10 5 4 5
28 27 24 26 22 22 19 29 25 26 18 18 20 16 16 16 13 9 11 11 13 9 4 16 21 22 19 17 9 10 7 8 9 12 11 11 13 15 16 16 14 11 11 11 11 10 12 8 4
26 23 25 24 22 18 2 16 21 20 18 19 19 18 13 11 11 13 10 6 9 8 9 5 16 19 18 19 16 15 13 13 12 11 10 12 15 15 16 15 16 13 11 13 12 10 10 7 8
23 22 24 20 22 17 20 15 16 18 20 22 18 14 12 11 13 15 14 8 13 10 8 9 7 7 16 19 17 14 14 12 10 9 12 15 13 17 17 17 16 16 10 14 13 14 12 11 9
26 24 24 17 9 15 21 14 13 17 20 26 22 25 24 20 20 17 14 8 5 5 9 7 11 12 11 10 20 18 15 14 10 10 10 11 11 13 17 18 17 16 15 13 14 14 15 13 11
17 20 9 5 7 6 20 18 19 14 20 22 19 6 13 21 18 13 10 1 5 7 5 6 12 13 12 10 9 17 17 14 14 8 8 12 11 11 17 18 17 15 17 14 13 13 15 15 13
18 17 8 11 6 16 18 19 22 22 21 21 6 9 10 9 9 9 7 5 7 10 11 9 8 4 7 7 9 8 11 10 10 13 9 8 9 11 13 16 16 17 16 16 13 12 11 13 12
16 19 18 18 7 5 7 11 25 18 21 26 18 10 11 11 7 13 12 11 10 8 9 9 10 9 7 5 6 10 10 8 12 11 9 10 6 8 8 13 17 16 17 16 16 11 14 12 13
2 7 5 6 7 10 7 15 11 8 11 17 11 14 12 10 10 10 8 8 7 8 8 9 9 8 8 8 6 4 8 8 7 7 8 7 8 8 11 13 15 16 15 15 16 13 12 13 11
5 3 6 4 3 5 5 11 12 11 13 17 18 14 11 9 8 7 6 6 7 7 8 8 7 8 8 8 7 6 5 4 7 8 8 8 8 9 8 11 12 14 14 15 15 15 14 14 10
12 7 4 5 5 4 4 5 14 14 15 14 13 11 8 7 6 5 6 5 6 4 4 6 6 6 8 9 8 7 6 4 5 4 7 7 7 6 7 8 11 11 11 11 14 11 11 14 13
Wind_Direction
291 265 238 256 250 232 260 254 250 271 22 20 22 338 350 90 1 114 146 119 119 132 138 138 136 139 141 141 139 138 139 139 136 133 129 126 118 113 110 107 106 110 116 117 116 112 109 108 97
296 292 257 273 241 246 250 239 258 250 92 65 15 311 301 97 127 127 116 121 125 134 145 142 139 140 142 141 142 142 143 142 141 138 135 134 128 121 116 113 113 115 120 121 123 119 115 109 94
270 266 272 237 238 242 254 248 233 146 88 95 191 222 291 99 120 128 125 124 132 139 149 140 140 140 143 143 144 145 144 143 144 142 142 139 134 129 123 117 118 125 130 130 127 124 121 105 100
259 238 246 261 249 232 248 272 35 60 94 91 250 167 91 89 129 118 139 129 138 144 143 141 139 140 144 146 146 146 144 143 145 146 148 144 139 134 129 127 126 133 135 133 130 130 122 116 114
246 262 245 247 242 255 261 250 93 4 353 120 275 255 119 94 99 129 138 133 142 149 127 147 140 142 145 148 148 147 145 144 148 148 149 146 142 136 134 134 134 134 137 132 130 129 126 123 120
256 232 250 247 246 251 249 265 129 191 274 222 233 267 93 124 125 137 139 139 142 134 136 145 144 144 147 151 149 149 146 147 149 149 149 147 141 139 140 142 141 140 134 130 134 135 135 133 134
245 252 245 251 261 256 244 247 219 195 242 233 213 290 125 147 136 141 139 141 142 126 137 147 152 148 145 146 148 149 149 149 150 149 149 145 142 145 146 145 146 142 140 140 142 142 140 142 147
255 248 259 254 251 258 262 234 174 209 229 77 122 340 169 129 144 142 137 140 135 130 136 149 152 153 155 154 148 149 149 149 149 149 147 145 146 149 150 149 152 150 151 153 154 153 155 158 164
255 261 246 245 252 257 267 229 149 221 250 177 193 77 96 131 143 143 142 140 135 136 142 155 156 159 161 157 156 144 146 146 143 145 146 142 168 168 160 185 154 160 159 162 164 166 169 175 188
234 243 243 248 256 261 273 272 191 220 232 251 172 103 143 162 155 160 161 158 155 150 152 161 161 162 163 163 152 161 159 163 168 170 164 174 184 173 173 165 155 164 167 172 176 181 185 194 198
251 239 243 250 262 275 270 305 199 228 215 224 202 158 170 176 170 174 174 172 165 157 159 168 166 165 170 162 156 166 166 167 180 180 169 194 191 174 177 136 158 162 175 178 178 182 208 210 238
229 253 253 248 266 276 277 272 293 264 264 241 228 164 165 180 186 182 185 176 173 172 165 169 171 170 177 156 162 172 168 173 177 182 173 193 202 167 183 160 171 177 171 195 178 185 209 231 234
233 237 238 262 269 270 276 278 259 275 279 253 273 171 154 197 190 195 193 186 178 174 170 172 173 175 184 174 166 179 178 179 179 177 179 191 205 169 184 175 174 183 171 198 179 196 197 218 225
239 245 246 235 241 262 261 266 260 255 274 283 275 251 216 198 247 202 195 199 180 175 175 170 177 177 185 202 171 181 187 178 180 180 183 190 196 175 187 208 175 182 181 192 189 196 184 211 182
245 251 242 239 238 234 258 251 246 246 256 257 258 262 247 231 216 238 205 200 187 176 173 173 175 177 184 198 176 179 186 174 184 184 181 184 203 199 184 199 189 185 197 186 191 185 194 177 208
249 238 247 235 227 234 238 246 238 235 241 252 249 235 242 244 241 227 226 204 206 175 171 171 177 177 182 192 199 179 193 200 184 189 181 181 196 199 183 188 210 200 176 172 169 184 184 202 200
233 238 228 239 232 219 223 244 252 241 242 228 237 240 242 237 223 226 203 217 208 190 169 170 176 180 182 182 198 187 197 185 205 185 191 180 189 197 190 204 200 193 188 177 181 186 177 191 216
219 222 232 226 225 222 223 239 250 254 264 247 234 225 232 234 244 215 214 206 204 216 169 169 173 174 182 179 192 196 191 202 194 198 194 180 187 192 207 195 212 185 194 188 181 187 194 200 197
236 233 230 243 234 223 239 233 228 221 254 259 229 236 266 239 218 235 214 200 212 199 179 169 170 172 176 190 187 193 201 192 201 204 189 188 188 190 195 212 201 197 193 193 186 189 199 202 177
243 238 245 239 235 245 229 233 227 217 219 235 253 196 240 260 241 219 221 199 192 197 199 169 170 172 177 191 193 199 193 202 197 205 201 191 183 191 194 201 209 205 192 193 192 192 194 205 172
236 246 244 255 256 250 228 258 239 214 222 244 228 240 216 240 265 256 214 200 181 181 99 180 174 174 178 183 195 190 206 196 201 202 206 197 189 189 199 202 206 202 199 201 199 190 194 200 188
244 251 248 252 253 246 51 263 246 223 216 229 243 242 212 233 273 283 281 199 176 166 142 199 185 179 181 182 188 199 200 204 202 203 197 200 194 197 197 207 207 213 198 204 200 199 194 183 192
249 254 260 262 247 264 252 244 250 234 224 235 226 231 217 210 250 268 271 270 167 169 174 169 195 184 188 189 198 192 212 211 204 197 197 194 198 200 201 202 207 211 209 205 198 198 196 201 185
230 235 253 260 296 261 223 237 243 240 230 224 221 222 223 200 207 223 248 259 328 152 184 182 181 198 199 195 201 203 203 212 206 202 201 194 197 197 203 204 207 207 215 203 205 197 200 199 193
230 236 222 258 220 236 237 222 239 249 263 279 288 299 8 198 196 203 219 267 18 337 333 178 199 209 204 209 209 207 209 209 219 215 208 200 197 195 203 204 204 208 208 213 199 204 200 199 195
214 215 237 211 220 238 225 231 233 235 267 271 341 60 60 19 64 61 57 38 12 18 7 13 6 291 187 196 212 212 207 209 214 218 225 226 207 203 195 202 206 207 208 211 207 206 201 199 201
259 234 215 254 274 306 276 246 242 240 223 247 251 142 62 60 60 50 51 43 26 6 355 11 356 345 327 282 232 208 205 208 212 222 208 227 209 204 197 194 205 208 208 208 210 208 208 199 196
152 11 261 155 213 232 240 234 245 251 273 232 111 86 82 76 59 54 47 57 45 25 4 4 344 323 309 311 326 300 192 206 210 189 210 209 219 207 199 200 201 208 207 210 209 209 204 197 197
10 87 340 4 288 253 229 209 88 48 30 62 70 68 62 61 70 69 50 34 43 25 8 352 351 334 327 324 313 307 322 255 189 197 213 209 210 212 203 191 194 201 208 211 209 208 205 197 173
68 17 66 338 37 352 332 267 61 50 63 63 63 46 53 32 36 40 77 57 46 41 25 345 344 358 348 337 331 324 336 326 323 238 203 203 205 214 207 174 192 202 206 209 209 178 169 166 167